Regional Weather Roundup
Issued by NWS

Home | Current Version | Previous Version | Text Only | Print | Product List | Glossary Off
Versions: 1 2 3 4 5 6 7 8 9 10 11 12 13 14 15 16 17 18 19 20 21 22 23 24 25 26 27 28 29 30 31 32 33 34 35 36 37 38 39 40 41 42 43 44 45 46 47 48 49 50

000
ASUS43 KOAX 050510
RWRNE

WEATHER ROUNDUP FOR NEBRASKA
NATIONAL WEATHER SERVICE OMAHA NE
1100 PM CST SUN DEC 04 2016

NOTES: SATELLITE DATA IS BEING USED TO AUGMENT CLOUD COVER ABOVE
       12000 FEET.
       "FAIR" INDICATES FEW OR NO CLOUDS BELOW 12,000 FEET WITH NO
       SIGNIFICANT WEATHER AND/OR OBSTRUCTIONS TO VISIBILITY.

  * THESE STATIONS DO NOT REPORT WEATHER SUCH AS RAIN...SNOW OR FOG.

NEZ001>004-019>022-054>056-050600-
NEBRASKA PANHANDLE

CITY           SKY/WX    TMP DP  RH WIND       PRES   REMARKS
SCOTTSBLUFF    CLOUDY    33  17  51 E7        29.66F WCI  27
ALLIANCE       CLOUDY    29  15  56 S8        29.65F WCI  21
CHADRON        CLOUDY    37  19  48 CALM      29.59F
KIMBALL        CLOUDY    46  21  37 SW22      29.68F
SIDNEY         CLOUDY    41  16  36 SW10      29.70F
$$

NEZ057>060-069>072-079>082-050600-
SOUTHWEST NEBRASKA

CITY           SKY/WX    TMP DP  RH WIND       PRES   REMARKS
NORTH PLATTE   CLOUDY    39  16  39 S15G23    29.73F WCI  31
IMPERIAL       CLOUDY    35  14  42 SW13      29.75F WCI  26
LEXINGTON      CLOUDY    40  17  40 SW16G24   29.77F WCI  32
MCCOOK         CLOUDY    38  16  40 SW8       29.78F WCI  32
OGALLALA       CLOUDY    35  17  49 SW7       29.72F WCI  29
$$

NEZ005>010-023>029-035>040-094-050600-
NORTH CENTRAL NEBRASKA

CITY           SKY/WX    TMP DP  RH WIND       PRES   REMARKS
VALENTINE      CLOUDY    36  16  44 SW13      29.64F WCI  27
AINSWORTH      CLEAR     34  19  55 S15       29.66F WCI  24
BROKEN BOW     CLEAR     35  19  52 S6        29.74F WCI  30
O`NEILL        CLEAR     31  21  66 S6        29.74F WCI  25
ORD            CLEAR     31  18  58 S8        29.75F WCI  23
THEDFORD       CLOUDY    36  17  44 S12       29.68F WCI  28
$$

NEZ041-046>049-061>064-073>077-083>087-050600-
SOUTH CENTRAL NEBRASKA

CITY           SKY/WX    TMP DP  RH WIND       PRES   REMARKS
GRAND ISLAND   CLOUDY    34  27  75 S9        29.82F WCI  27
AURORA         CLEAR     35  29  80 S10       29.82F WCI  27
HASTINGS       CLOUDY    37  26  64 S12       29.84F WCI  29
HEBRON         CLEAR     35  29  78 S10       29.88F WCI  27
HOLDREGE       CLOUDY    37  20  50 SW14G21   29.81S WCI  28
KEARNEY *      CLOUDY    37  21  52 S14       29.81F WCI  29
YORK           CLEAR     32  30  93 S8        29.85F WCI  25
$$

NEZ011>018-030>034-042>045-050600-
NORTHEAST NEBRASKA

CITY           SKY/WX    TMP DP  RH WIND       PRES   REMARKS
NORFOLK        CLEAR     34  29  82 S16       29.78F WCI  24
ALBION         CLEAR     32  27  81 SE5       29.79F WCI  28
BLAIR          CLEAR     32  30  92 S6        29.87S WCI  26
FREMONT        CLEAR     34  31  86 S8        29.86F WCI  27
TEKAMAH        CLEAR     33  30  88 S10       29.87F WCI  25
WAYNE          CLEAR     33  30  88 SW8       29.81S WCI  26
$$

NEZ050>053-065>068-078-088>093-050600-
SOUTHEAST NEBRASKA

CITY           SKY/WX    TMP DP  RH WIND       PRES   REMARKS
LINCOLN        CLEAR     31  29  92 SE5       29.90S WCI  26
OMAHA EPPLEY   CLEAR     31  26  82 SE9       29.90S WCI  23
BEATRICE       CLEAR     34  32  91 S9        29.90F WCI  27
FALLS CITY     CLEAR     34  32  92 S5        29.94F WCI  30
NEBRASKA CITY  CLEAR     35  32  90 SW9       29.91S WCI  27
PLATTSMOUTH    CLEAR     33  29  87 S8        29.89F WCI  25
$$

NEZ044-045-051>053-067-050600-
OMAHA AREA

CITY           SKY/WX    TMP DP  RH WIND       PRES   REMARKS
OMAHA EPPLEY   CLEAR     31  26  82 SE9       29.90S WCI  23
BLAIR          CLEAR     32  30  92 S6        29.87S WCI  26
FREMONT        CLEAR     34  31  86 S8        29.86F WCI  27
MILLARD        CLEAR     29  28  95 CALM      29.90S FOG
OFFUTT AFB     CLEAR     26  26 100 E3        29.90S
PLATTSMOUTH    CLEAR     33  29  87 S8        29.89F WCI  25
WAHOO          FAIR      29  27  92 S6        29.87F WCI  23
$$




USA.gov is the U.S. government's official web portal to all federal, state and local government web resources and services.